When you browse on this site, cookies collect data to enhance your experience and personalize the content and advertising you see.
Visit our Privacy Policy to learn more. By continuing to use the site, you agree to this use of cookies and data.
  • Em Portugal
  • Lista de países
  • Para 7 dias
  • Temperatura da água
  • Mapas de satélite
  • Mapa do tempo
  • Widgets de tempo
  • user-avatar
    Iniciar Sessão

    Previsão horária em Kobialki

    Hoje, 16 Janeiro, Quarta-feira

    Tempo Temperatura Precipitação Vento Pressão Humidade
    00:00 -1°C° 0.3 mm 7 m/s 733 mmHg 92%
    01:00 -1°C° 0 mm 7 m/s 733 mmHg 89%
    02:00 -1°C° 0 mm 7 m/s 734 mmHg 87%
    03:00 -2°C° 0 mm 6 m/s 735 mmHg 86%
    04:00 -2°C° 0 mm 6 m/s 736 mmHg 84%
    05:00 -2°C° 0 mm 5 m/s 736 mmHg 86%
    06:00 -2°C° 0 mm 4 m/s 737 mmHg 88%
    07:00 -1°C° 0 mm 2 m/s 738 mmHg 90%
    08:00 -1°C° 0 mm 2 m/s 738 mmHg 91%
    09:00 -1°C° 0 mm 2 m/s 738 mmHg 93%
    10:00 +1°C° 0 mm 2 m/s 739 mmHg 94%
    11:00 +1°C° 0.2 mm 2 m/s 739 mmHg 96%
    12:00 0°C° 0.2 mm 3 m/s 739 mmHg 97%
    13:00 +1°C° 0.2 mm 3 m/s 739 mmHg 99%
    14:00 +1°C° 0.1 mm 3 m/s 739 mmHg 98%
    15:00 0°C° 0.1 mm 4 m/s 739 mmHg 97%
    16:00 +1°C° 0.1 mm 5 m/s 739 mmHg 96%
    17:00 +1°C° 0 mm 5 m/s 738 mmHg 96%
    18:00 +1°C° 0 mm 5 m/s 738 mmHg 95%
    19:00 +1°C° 0 mm 5 m/s 738 mmHg 95%
    20:00 +1°C° 0 mm 5 m/s 738 mmHg 95%
    21:00 +1°C° 0 mm 5 m/s 738 mmHg 95%
    22:00 0°C° 0 mm 5 m/s 738 mmHg 95%
    23:00 -1°C° 0 mm 6 m/s 737 mmHg 94%

    Amanhã, 17 Janeiro, Quinta-feira

    Tempo Temperatura Precipitação Vento Pressão Humidade
    00:00 -1°C° 0 mm 6 m/s 737 mmHg 93%
    01:00 -1°C° 0 mm 6 m/s 737 mmHg 93%
    02:00 -1°C° 0.1 mm 6 m/s 736 mmHg 92%
    03:00 -1°C° 0.1 mm 6 m/s 735 mmHg 91%
    04:00 -2°C° 0.1 mm 7 m/s 734 mmHg 90%
    05:00 -2°C° 0 mm 7 m/s 734 mmHg 87%
    06:00 -2°C° 0 mm 7 m/s 733 mmHg 85%
    07:00 -2°C° 0 mm 7 m/s 733 mmHg 83%
    08:00 -1°C° 0 mm 8 m/s 733 mmHg 81%
    09:00 -1°C° 0 mm 8 m/s 733 mmHg 80%
    10:00 -1°C° 0 mm 8 m/s 733 mmHg 79%
    11:00 0°C° 0 mm 8 m/s 733 mmHg 80%
    12:00 0°C° 0 mm 8 m/s 734 mmHg 81%
    13:00 +1°C° 0 mm 8 m/s 734 mmHg 82%
    14:00 0°C° 0 mm 7 m/s 734 mmHg 81%
    15:00 0°C° 0 mm 7 m/s 734 mmHg 81%
    16:00 0°C° 0 mm 7 m/s 734 mmHg 80%
    17:00 -1°C° 0 mm 6 m/s 734 mmHg 81%
    18:00 -1°C° 0 mm 6 m/s 734 mmHg 82%
    19:00 -1°C° 0 mm 6 m/s 734 mmHg 83%
    20:00 -1°C° 0.6 mm 7 m/s 734 mmHg 84%
    21:00 -1°C° 0.6 mm 7 m/s 734 mmHg 86%
    22:00 -1°C° 0.6 mm 7 m/s 733 mmHg 87%
    23:00 -1°C° 0.1 mm 7 m/s 734 mmHg 83%

    Depois de amanhã, 18 Janeiro, Sexta-feira

    Tempo Temperatura Precipitação Vento Pressão Humidade
    00:00 -2°C° 0.1 mm 7 m/s 734 mmHg 78%
    01:00 -2°C° 0.1 mm 8 m/s 734 mmHg 74%
    02:00 -4°C° 0 mm 8 m/s 734 mmHg 73%
    03:00 -4°C° 0 mm 8 m/s 734 mmHg 73%
    04:00 -5°C° 0 mm 9 m/s 734 mmHg 73%
    05:00 -5°C° 0.2 mm 9 m/s 735 mmHg 76%
    06:00 -5°C° 0.2 mm 10 m/s 735 mmHg 80%
    07:00 -5°C° 0.2 mm 10 m/s 735 mmHg 84%
    08:00 -5°C° 0.5 mm 9 m/s 737 mmHg 84%
    09:00 -4°C° 0.5 mm 8 m/s 738 mmHg 85%
    10:00 -3°C° 0.5 mm 7 m/s 739 mmHg 85%
    11:00 -3°C° 0.1 mm 7 m/s 740 mmHg 81%
    12:00 -3°C° 0.1 mm 7 m/s 742 mmHg 76%
    13:00 -3°C° 0.1 mm 7 m/s 743 mmHg 71%
    14:00 -4°C° 0 mm 6 m/s 744 mmHg 73%
    15:00 -5°C° 0 mm 5 m/s 745 mmHg 74%
    16:00 -4°C° 0 mm 4 m/s 746 mmHg 75%
    17:00 -4°C° 0 mm 4 m/s 746 mmHg 77%
    18:00 -5°C° 0 mm 4 m/s 747 mmHg 78%
    19:00 -5°C° 0 mm 4 m/s 747 mmHg 79%
    20:00 -5°C° 0 mm 4 m/s 748 mmHg 79%
    21:00 -5°C° 0 mm 4 m/s 748 mmHg 79%
    22:00 -5°C° 0 mm 4 m/s 749 mmHg 80%
    23:00 -5°C° 0 mm 4 m/s 749 mmHg 82%

    19 Janeiro, Sábado

    Tempo Temperatura Precipitação Vento Pressão Humidade
    00:00 -5°C° 0 mm 4 m/s 749 mmHg 84%
    01:00 -5°C° 0 mm 4 m/s 749 mmHg 86%
    02:00 -5°C° 0 mm 4 m/s 749 mmHg 86%
    03:00 -5°C° 0 mm 4 m/s 749 mmHg 87%
    04:00 -6°C° 0 mm 5 m/s 749 mmHg 87%
    05:00 -5°C° 0 mm 5 m/s 749 mmHg 87%
    06:00 -5°C° 0 mm 5 m/s 749 mmHg 87%
    07:00 -5°C° 0 mm 5 m/s 749 mmHg 86%
    08:00 -5°C° 0 mm 5 m/s 749 mmHg 86%
    09:00 -5°C° 0 mm 5 m/s 749 mmHg 85%
    10:00 -3°C° 0 mm 4 m/s 750 mmHg 85%
    11:00 -3°C° 0 mm 4 m/s 750 mmHg 84%
    12:00 -3°C° 0 mm 4 m/s 750 mmHg 84%
    13:00 -1°C° 0 mm 3 m/s 750 mmHg 84%
    14:00 -2°C° 0 mm 3 m/s 750 mmHg 86%
    15:00 -2°C° 0 mm 3 m/s 749 mmHg 88%
    16:00 -3°C° 0 mm 2 m/s 749 mmHg 90%
    17:00 -3°C° 0 mm 2 m/s 749 mmHg 90%
    18:00 -3°C° 0 mm 2 m/s 749 mmHg 91%
    19:00 -4°C° 0 mm 2 m/s 749 mmHg 91%
    20:00 -4°C° 0 mm 2 m/s 750 mmHg 91%
    21:00 -4°C° 0 mm 2 m/s 750 mmHg 92%
    22:00 -4°C° 0 mm 2 m/s 750 mmHg 92%
    23:00 -3°C° 0 mm 2 m/s 750 mmHg 92%

    20 Janeiro, Domingo

    Tempo Temperatura Precipitação Vento Pressão Humidade
    00:00 -3°C° 0 mm 2 m/s 749 mmHg 92%
    01:00 -3°C° 0 mm 2 m/s 749 mmHg 91%
    02:00 -3°C° 0 mm 2 m/s 749 mmHg 91%
    03:00 -3°C° 0 mm 2 m/s 749 mmHg 91%
    04:00 -3°C° 0 mm 2 m/s 749 mmHg 91%
    05:00 -3°C° 0 mm 2 m/s 749 mmHg 91%
    06:00 -4°C° 0 mm 3 m/s 749 mmHg 91%
    07:00 -4°C° 0 mm 3 m/s 749 mmHg 90%
    08:00 -4°C° 0 mm 3 m/s 749 mmHg 88%
    09:00 -4°C° 0 mm 4 m/s 749 mmHg 87%
    10:00 -3°C° 0 mm 4 m/s 749 mmHg 85%
    11:00 -3°C° 0 mm 4 m/s 749 mmHg 84%
    12:00 -2°C° 0 mm 4 m/s 749 mmHg 84%
    13:00 -2°C° 0 mm 5 m/s 749 mmHg 84%
    14:00 -2°C° 0.1 mm 4 m/s 749 mmHg 84%
    15:00 -3°C° 0.1 mm 4 m/s 749 mmHg 84%
    16:00 -2°C° 0.1 mm 3 m/s 749 mmHg 84%
    17:00 -4°C° 0 mm 3 m/s 750 mmHg 85%
    18:00 -5°C° 0 mm 3 m/s 750 mmHg 85%
    19:00 -5°C° 0 mm 3 m/s 751 mmHg 85%
    20:00 -5°C° 0 mm 3 m/s 751 mmHg 85%
    21:00 -6°C° 0 mm 3 m/s 752 mmHg 86%
    22:00 -6°C° 0 mm 3 m/s 752 mmHg 86%
    23:00 -6°C° 0 mm 3 m/s 753 mmHg 86%

    21 Janeiro, Segunda-feira

    Tempo Temperatura Precipitação Vento Pressão Humidade
    00:00 -6°C° 0 mm 3 m/s 753 mmHg 86%
    01:00 -6°C° 0 mm 3 m/s 753 mmHg 86%
    02:00 -6°C° 0 mm 3 m/s 754 mmHg 86%
    03:00 -6°C° 0 mm 3 m/s 754 mmHg 86%
    04:00 -6°C° 0 mm 3 m/s 754 mmHg 86%
    05:00 -6°C° 0 mm 3 m/s 755 mmHg 87%
    06:00 -7°C° 0 mm 3 m/s 755 mmHg 87%
    07:00 -7°C° 0 mm 3 m/s 755 mmHg 87%
    08:00 -6°C° 0 mm 3 m/s 756 mmHg 85%
    09:00 -5°C° 0 mm 3 m/s 756 mmHg 82%
    10:00 -5°C° 0 mm 3 m/s 757 mmHg 80%
    11:00 -4°C° 0 mm 3 m/s 757 mmHg 78%
    12:00 -4°C° 0 mm 3 m/s 757 mmHg 76%
    13:00 -2°C° 0 mm 3 m/s 757 mmHg 74%
    14:00 -4°C° 0 mm 3 m/s 757 mmHg 78%
    15:00 -4°C° 0 mm 3 m/s 757 mmHg 81%
    16:00 -4°C° 0 mm 2 m/s 757 mmHg 85%
    17:00 -4°C° 0 mm 2 m/s 757 mmHg 85%
    18:00 -4°C° 0 mm 2 m/s 757 mmHg 85%
    19:00 -5°C° 0 mm 2 m/s 757 mmHg 85%
    20:00 -5°C° 0 mm 2 m/s 757 mmHg 84%
    21:00 -6°C° 0 mm 3 m/s 757 mmHg 83%
    22:00 -6°C° 0 mm 3 m/s 757 mmHg 82%
    23:00 -6°C° 0 mm 3 m/s 757 mmHg 81%
    Mostrar mais